Dover AFB, DE

6:36 AM EDT on October 18, 2018 (GMT -0400)
Dover Air Force Base

Weather History for KDOV - September, 2013

Change the Weather History Date:

Sunday, September 29, 2013

  Actual Average (KDOV) Record (KDOV)
Temperature  
Mean Temperature 62 °F -  
Max Temperature 71 °F 74 °F 89 °F (1954)
Min Temperature 52 °F 54 °F 39 °F (1957)
Degree Days  
Heating Degree Days 4    
Growing Degree Days 12 (Base 50)    
Moisture  
Dew Point 55 °F    
Average Humidity 81    
Maximum Humidity 100    
Minimum Humidity 55    
Precipitation  
Precipitation 0.00 in - - ()
Sea Level Pressure  
Sea Level Pressure 30.15 in    
Wind  
Wind Speed 6 mph (NNE)    
Max Wind Speed 12 mph    
Max Gust Speed -    
Visibility 10 miles    
Events      
Averages and records for this station are not official NWS values.
T = Trace of Precipitation, MM = Missing Value Source: NWS Daily Summary

Daily Weather History Graph

Daily Weather History Graph

Search for Another Location

Airport or City:

Astronomy

Sep. 29, 2013 Rise Set
Actual Time 6:56 AM EDT 6:47 PM EDT
Civil Twilight 6:29 AM EDT 7:14 PM EDT
Nautical Twilight 5:58 AM EDT 7:45 PM EDT
Astronomical Twilight 5:27 AM EDT 8:16 PM EDT
Moon 1:37 AM EDT (9/29) 3:40 PM EDT (9/29)
Length of Visible Light 12h 44m
Length of Day
11h 51m
Waning Crescent, 27% of the Moon is Illuminated
Sep 29
Waning Crescent
Oct 4
New
Oct 11
First Quarter
Oct 18
Full
Oct 26
Last Quarter

Hourly Weather History & Observations

Time (EDT) Temp. Dew Point Humidity Pressure Visibility Wind Dir Wind Speed Gust Speed Precip Events Conditions
12:38 AM 59.0 °F 57.2 °F 94% 30.20 in 10.0 mi NNW 4.6 mph - N/A   Overcast
12:48 AM 57.2 °F 55.4 °F 94% 30.20 in 10.0 mi North 4.6 mph - N/A   Overcast
12:53 AM 55.4 °F 55.4 °F 100% 30.20 in 10.0 mi North 5.8 mph - N/A   Mostly Cloudy
12:58 AM 55.8 °F 54.7 °F 96% 30.21 in 10.0 mi Variable 6.9 mph - N/A   Mostly Cloudy
1:28 AM 55.4 °F 55.4 °F 100% 30.19 in 10.0 mi North 5.8 mph - N/A   Scattered Clouds
1:58 AM 53.1 °F 52.9 °F 99% 30.20 in 10.0 mi North 6.9 mph - N/A   Clear
2:58 AM 52.7 °F 52.5 °F 99% 30.18 in 10.0 mi NNW 3.5 mph - N/A   Partly Cloudy
3:58 AM 52.9 °F 52.5 °F 99% 30.16 in 10.0 mi NNW 5.8 mph - N/A   Clear
4:58 AM 52.3 °F 52.2 °F 99% 30.16 in 10.0 mi North 8.1 mph - N/A   Clear
5:58 AM 52.0 °F 51.8 °F 99% 30.17 in 10.0 mi North 8.1 mph - N/A   Clear
6:58 AM 52.5 °F 52.3 °F 99% 30.17 in 10.0 mi Variable 5.8 mph - N/A   Clear
7:58 AM 55.8 °F 55.6 °F 99% 30.17 in 10.0 mi North 4.6 mph - N/A   Clear
8:58 AM 61.5 °F 61.2 °F 99% 30.18 in 10.0 mi NNE 9.2 mph - N/A   Clear
9:58 AM 66.0 °F 58.8 °F 78% 30.18 in 10.0 mi NE 10.4 mph - N/A   Clear
10:58 AM 67.8 °F 57.0 °F 68% 30.18 in 10.0 mi ENE 11.5 mph - N/A   Clear
11:28 AM 69.8 °F 57.2 °F 64% 30.16 in 10.0 mi ENE 8.1 mph - N/A   Mostly Cloudy
11:58 AM 67.8 °F 56.5 °F 67% 30.17 in 10.0 mi NNE 9.2 mph - N/A   Mostly Cloudy
12:18 PM 68.0 °F 55.4 °F 64% 30.15 in 10.0 mi East 6.9 mph - N/A   Mostly Cloudy
12:23 PM 68.0 °F 55.4 °F 64% 30.15 in 10.0 mi ENE 9.2 mph - N/A   Mostly Cloudy
12:43 PM 69.8 °F 57.2 °F 64% 30.14 in 10.0 mi Variable 5.8 mph - N/A   Mostly Cloudy
12:48 PM 69.8 °F 57.2 °F 64% 30.14 in 10.0 mi ENE 8.1 mph - N/A   Mostly Cloudy
12:53 PM 69.8 °F 57.2 °F 64% 30.14 in 10.0 mi ENE 8.1 mph - N/A   Scattered Clouds
12:58 PM 70.0 °F 55.6 °F 60% 30.15 in 10.0 mi Variable 5.8 mph - N/A   Partly Cloudy
1:58 PM 70.9 °F 55.9 °F 59% 30.14 in 10.0 mi East 6.9 mph - N/A   Clear
2:58 PM 71.4 °F 54.7 °F 55% 30.11 in 10.0 mi East 8.1 mph - N/A   Clear
5:58 PM 66.9 °F 53.1 °F 61% 30.09 in 10.0 mi SE 5.8 mph - N/A   Clear
6:58 PM 61.7 °F 52.2 °F 71% 30.09 in 10.0 mi Variable 3.5 mph - N/A   Clear
7:58 PM 59.9 °F 52.3 °F 76% 30.09 in 10.0 mi South 2.3 mph - N/A   Clear
8:58 PM 59.5 °F 52.7 °F 78% 30.10 in 10.0 mi Calm Calm - N/A   Clear
9:58 PM 57.2 °F 52.5 °F 84% 30.09 in 10.0 mi Variable 1.2 mph - N/A   Clear
10:58 PM 55.0 °F 50.2 °F 84% 30.09 in 10.0 mi North 1.2 mph - N/A   Clear
11:58 PM 54.0 °F 51.3 °F 91% 30.07 in 10.0 mi Calm Calm - N/A   Clear